Location: Beekmeers
(50.8953°N, 3.6968°E)
Time: 07:40:56
(UTC+00:00)

SENTINEL 1B - Pass Details

Date: 22 October 2025
Orbit: 561 x 585 km, 98.1° (Epoch: 17 November)

Event Time Altitude Azimuth Distance (km) Brightness Sun altitude
Exits shadow 18:17:35 12° 34° (NE) 1,787 7.4 -16.3°
Drops below altitude 10° 18:18:16 10° 25° (NNE) 1,917 7.7 -16.4°
Sets 18:21:19 0° 0° (N) 2,818 8.8 -16.9°
